Galesburg, IL

3:25 AM CST on February 25, 2017 (GMT -0600)
Galesburg Municipal

Weather History for KGBG - March, 2013

Change the Weather History Date:

Wednesday, March 13, 2013

  Actual Average Record
Temperature  
Mean Temperature 28 °F -  
Max Temperature 34 °F 44 °F 76 °F (1990)
Min Temperature 21 °F 27 °F 9 °F (1993)
Degree Days  
Heating Degree Days 38    
Moisture  
Dew Point 19 °F    
Average Humidity 71    
Maximum Humidity 86    
Minimum Humidity 46    
Precipitation  
Precipitation 0.00 in - - ()
Sea Level Pressure  
Sea Level Pressure 30.30 in    
Wind  
Wind Speed 14 mph (WNW)    
Max Wind Speed 18 mph    
Max Gust Speed 26 mph    
Visibility 10 miles    
Events Snow    
Averages and records for this station are not official NWS values.
T = Trace of Precipitation, MM = Missing Value Source: NWS Daily Summary

Daily Weather History Graph

Daily Weather History Graph

Search for Another Location

Airport or City:

Trip Planner

Search our weather history database for the weather conditions in past years. The results will help you decide how hot, cold, wet, or windy it might be!

Date:

Astronomy

Mar. 13, 2013 Rise Set
Actual Time 7:16 AM CDT 7:06 PM CDT
Civil Twilight 6:48 AM CDT 7:33 PM CDT
Nautical Twilight 6:17 AM CDT 8:05 PM CDT
Astronomical Twilight 5:44 AM CDT 8:38 PM CDT
Moon 7:54 AM CDT (3/13) 9:24 PM CDT (3/13)
Length of Visible Light 12h 45m
Length of Day
11h 50m
Waxing Crescent, 4% of the Moon is Illuminated
Mar 13
Waxing Crescent
Mar 19
First Quarter
Mar 27
Full
Apr 2
Last Quarter
Apr 10
New

Hourly Weather History & Observations

Time (CDT) Temp. Windchill Dew Point Humidity Pressure Visibility Wind Dir Wind Speed Gust Speed Precip Events Conditions
12:15 AM 25.3 °F 12.2 °F 20.5 °F 82% 30.14 in 3.0 mi WNW 17.3 mph 25.3 mph N/A Snow Light Snow
12:35 AM 25.0 °F 12.2 °F 19.0 °F 78% 30.14 in 10.0 mi WNW 16.1 mph 21.9 mph N/A   Mostly Cloudy
12:55 AM 24.8 °F 11.5 °F 19.4 °F 80% 30.14 in 10.0 mi WNW 17.3 mph 24.2 mph N/A   Mostly Cloudy
1:15 AM 24.3 °F 12.2 °F 19.9 °F 84% 30.14 in 10.0 mi WNW 13.8 mph 20.7 mph N/A   Scattered Clouds
1:35 AM 24.3 °F 12.7 °F 19.2 °F 81% 30.15 in 10.0 mi WNW 12.7 mph 17.3 mph N/A   Scattered Clouds
1:55 AM 23.9 °F 11.2 °F 18.1 °F 79% 30.15 in 10.0 mi WNW 15.0 mph 24.2 mph N/A   Scattered Clouds
2:15 AM 23.7 °F 11.5 °F 18.7 °F 81% 30.16 in 10.0 mi WNW 13.8 mph 25.3 mph N/A   Clear
2:35 AM 23.0 °F 11.1 °F 19.4 °F 86% 30.16 in 10.0 mi West 12.7 mph 18.4 mph N/A   Clear
2:55 AM 23.0 °F 10.6 °F 18.9 °F 84% 30.16 in 10.0 mi West 13.8 mph 18.4 mph N/A   Clear
3:15 AM 23.0 °F 9.2 °F 18.3 °F 82% 30.16 in 10.0 mi WNW 17.3 mph - N/A   Clear
3:55 AM 22.6 °F 10.1 °F 18.5 °F 84% 30.17 in 10.0 mi West 13.8 mph 23.0 mph N/A   Clear
4:15 AM 22.5 °F 9.4 °F 18.3 °F 84% 30.18 in 10.0 mi WNW 15.0 mph 20.7 mph N/A   Clear
4:35 AM 22.3 °F 9.2 °F 18.3 °F 85% 30.18 in 10.0 mi West 15.0 mph - N/A   Clear
4:55 AM 22.1 °F 9.5 °F 18.1 °F 85% 30.19 in 10.0 mi WNW 13.8 mph - N/A   Scattered Clouds
5:15 AM 22.1 °F 9.5 °F 18.1 °F 85% 30.20 in 10.0 mi West 13.8 mph 19.6 mph N/A   Scattered Clouds
5:35 AM 21.9 °F 8.7 °F 18.0 °F 85% 30.20 in 10.0 mi WNW 15.0 mph 18.4 mph N/A   Scattered Clouds
5:55 AM 21.7 °F 9.0 °F 17.6 °F 84% 30.21 in 10.0 mi WNW 13.8 mph 19.6 mph N/A   Clear
6:15 AM 21.7 °F 8.5 °F 17.6 °F 84% 30.22 in 10.0 mi WNW 15.0 mph 20.7 mph N/A   Clear
6:35 AM 21.6 °F 8.8 °F 17.4 °F 84% 30.23 in 10.0 mi WNW 13.8 mph 19.6 mph N/A   Clear
6:55 AM 21.6 °F 7.8 °F 17.1 °F 83% 30.24 in 10.0 mi WNW 16.1 mph 21.9 mph N/A   Clear
7:15 AM 21.2 °F 7.8 °F 17.1 °F 84% 30.24 in 10.0 mi WNW 15.0 mph 19.6 mph N/A   Clear
7:35 AM 21.2 °F 8.9 °F 17.2 °F 85% 30.25 in 10.0 mi WNW 12.7 mph 21.9 mph N/A   Clear
7:55 AM 21.9 °F 8.7 °F 17.4 °F 83% 30.26 in 10.0 mi WNW 15.0 mph 20.7 mph N/A   Clear
8:15 AM 22.3 °F 8.2 °F 17.4 °F 82% 30.27 in 10.0 mi WNW 17.3 mph - N/A   Clear
8:35 AM 23.0 °F 9.6 °F 17.8 °F 80% 30.28 in 10.0 mi WNW 16.1 mph 23.0 mph N/A   Clear
8:55 AM 23.2 °F 9.8 °F 17.4 °F 79% 30.29 in 10.0 mi NW 16.1 mph 26.5 mph N/A   Clear
9:15 AM 23.9 °F 10.8 °F 17.8 °F 77% 30.30 in 10.0 mi WNW 16.1 mph 21.9 mph N/A   Scattered Clouds
9:35 AM 23.9 °F 10.8 °F 17.1 °F 75% 30.31 in 10.0 mi NW 16.1 mph 21.9 mph N/A   Mostly Cloudy
9:55 AM 25.3 °F 12.6 °F 17.1 °F 71% 30.31 in 10.0 mi NW 16.1 mph 23.0 mph N/A   Mostly Cloudy
10:15 AM 26.4 °F 13.2 °F 16.9 °F 67% 30.32 in 10.0 mi NW 18.4 mph 23.0 mph N/A   Scattered Clouds
10:35 AM 27.0 °F 13.9 °F 16.2 °F 64% 30.33 in 10.0 mi NW 18.4 mph 25.3 mph N/A   Scattered Clouds
10:55 AM 27.7 °F 15.2 °F 17.1 °F 64% 30.34 in 10.0 mi NW 17.3 mph - N/A   Scattered Clouds
11:15 AM 28.8 °F 17.5 °F 18.5 °F 66% 30.34 in 10.0 mi NW 15.0 mph 21.9 mph N/A   Clear
11:35 AM 29.3 °F 18.2 °F 18.7 °F 65% 30.35 in 10.0 mi NW 15.0 mph - N/A   Clear
11:55 AM 29.8 °F 19.3 °F 18.3 °F 62% 30.35 in 10.0 mi NW 13.8 mph 18.4 mph N/A   Clear
12:15 PM 30.4 °F 19.1 °F 19.6 °F 64% 30.36 in 10.0 mi WNW 16.1 mph 20.7 mph N/A   Clear
12:35 PM 30.7 °F 20.4 °F 19.6 °F 63% 30.36 in 10.0 mi WNW 13.8 mph 24.2 mph N/A   Clear
12:55 PM 31.5 °F 19.8 °F 19.2 °F 61% 30.36 in 10.0 mi WNW 18.4 mph 21.9 mph N/A   Clear
1:15 PM 32.0 °F 21.2 °F 17.8 °F 56% 30.36 in 10.0 mi WNW 16.1 mph 23.0 mph N/A   Clear
1:35 PM 32.4 °F 22.5 °F 17.2 °F 54% 30.36 in 10.0 mi NW 13.8 mph 21.9 mph N/A   Clear
1:55 PM 33.8 °F 22.8 °F 17.6 °F 52% 30.36 in 10.0 mi WNW 18.4 mph 25.3 mph N/A   Clear
2:15 PM 33.6 °F 23.7 °F 16.7 °F 50% 30.35 in 10.0 mi WNW 15.0 mph 21.9 mph N/A   Clear
2:35 PM 33.8 °F 23.5 °F 15.1 °F 46% 30.35 in 10.0 mi NNW 16.1 mph 19.6 mph N/A   Clear
2:55 PM 34.0 °F 24.6 °F 15.1 °F 46% 30.36 in 10.0 mi WNW 13.8 mph 24.2 mph N/A   Clear
3:15 PM 34.0 °F 23.8 °F 16.5 °F 49% 30.35 in 10.0 mi WNW 16.1 mph 23.0 mph N/A   Clear
3:35 PM 34.0 °F 24.6 °F 16.7 °F 49% 30.36 in 10.0 mi WNW 13.8 mph 23.0 mph N/A   Clear
3:55 PM 34.2 °F 24.8 °F 16.2 °F 48% 30.35 in 10.0 mi WNW 13.8 mph - N/A   Clear
4:15 PM 34.7 °F 26.4 °F 16.7 °F 48% 30.36 in 10.0 mi WNW 11.5 mph 20.7 mph N/A   Clear
4:35 PM 34.3 °F 24.6 °F 18.5 °F 52% 30.36 in 10.0 mi West 15.0 mph 19.6 mph N/A   Clear
4:55 PM 34.2 °F 25.2 °F 19.2 °F 54% 30.36 in 10.0 mi WNW 12.7 mph 20.7 mph N/A   Clear
5:15 PM 33.8 °F 25.8 °F 18.0 °F 52% 30.36 in 10.0 mi WNW 10.4 mph - N/A   Clear
5:35 PM 33.4 °F 24.3 °F 18.1 °F 54% 30.36 in 10.0 mi WNW 12.7 mph - N/A   Clear
5:55 PM 33.1 °F 23.0 °F 16.9 °F 51% 30.36 in 10.0 mi WNW 15.0 mph 18.4 mph N/A   Clear
6:15 PM 32.5 °F 24.2 °F 18.0 °F 55% 30.36 in 10.0 mi WNW 10.4 mph - N/A   Clear
6:35 PM 32.2 °F 25.0 °F 18.1 °F 56% 30.37 in 10.0 mi WNW 8.1 mph - N/A   Clear
6:55 PM 31.6 °F 24.4 °F 19.8 °F 62% 30.36 in 10.0 mi WNW 8.1 mph - N/A   Clear
7:15 PM 30.7 °F 24.1 °F 18.7 °F 61% 30.36 in 10.0 mi WNW 6.9 mph - N/A   Clear
7:35 PM 29.3 °F 23.2 °F 20.8 °F 71% 30.36 in 10.0 mi WNW 5.8 mph - N/A   Clear
7:55 PM 29.1 °F 23.0 °F 20.5 °F 70% 30.36 in 10.0 mi WNW 5.8 mph - N/A   Clear
8:15 PM 27.9 °F 24.0 °F 20.5 °F 74% 30.36 in 10.0 mi West 3.5 mph - N/A   Clear
8:35 PM 27.9 °F 24.0 °F 23.0 °F 82% 30.36 in 10.0 mi West 3.5 mph - N/A   Clear
8:55 PM 27.5 °F 23.6 °F 23.4 °F 84% 30.36 in 10.0 mi West 3.5 mph - N/A   Clear
9:15 PM 27.3 °F - 22.5 °F 82% 30.35 in 10.0 mi Calm Calm - N/A   Clear
9:35 PM 26.6 °F 22.6 °F 21.9 °F 82% 30.36 in 10.0 mi West 3.5 mph - N/A   Clear
9:55 PM 27.1 °F 23.2 °F 21.6 °F 80% 30.36 in 10.0 mi West 3.5 mph - N/A   Clear
10:15 PM 26.6 °F - 21.9 °F 82% 30.36 in 10.0 mi Calm Calm - N/A   Clear
10:35 PM 26.2 °F 22.1 °F 21.6 °F 82% 30.36 in 10.0 mi West 3.5 mph - N/A   Clear
10:55 PM 26.2 °F 22.1 °F 21.2 °F 81% 30.36 in 10.0 mi West 3.5 mph - N/A   Clear
11:15 PM 25.7 °F 20.1 °F 21.2 °F 83% 30.36 in 10.0 mi West 4.6 mph - N/A   Clear
11:35 PM 24.3 °F - 20.7 °F 86% 30.36 in 10.0 mi Calm Calm - N/A   Clear
11:55 PM 25.7 °F - 21.2 °F 83% 30.35 in 10.0 mi Calm Calm - N/A   Clear